When you browse on this site, cookies collect data to enhance your experience and personalize the content and advertising you see.
Visit our Privacy Policy to learn more. By continuing to use the site, you agree to this use of cookies and data.
  • în România
  • Lista ţărilor
  • Pe 7 zile
  • Temperatura apei
  • Hartă satelitară
  • Meteo pe hartă
  • Widget-uri
  • user-avatar
    Intrare

    Meteo pe oră la Świdwin

    Astăzi, 19 Martie, Marţi

    Timp Temperatura Precipitaţii Vânt Presiune Umiditate
    00:00 0°C° 0 mm 5 m/s 750 mmHg 87%
    01:00 0°C° 0 mm 4 m/s 751 mmHg 90%
    02:00 -1°C° 0 mm 4 m/s 751 mmHg 91%
    03:00 -1°C° 0 mm 4 m/s 752 mmHg 92%
    04:00 -1°C° 0 mm 4 m/s 752 mmHg 93%
    05:00 -1°C° 0 mm 4 m/s 753 mmHg 94%
    06:00 -1°C° 0 mm 4 m/s 753 mmHg 94%
    07:00 -1°C° 0 mm 4 m/s 754 mmHg 94%
    08:00 0°C° 0 mm 4 m/s 755 mmHg 89%
    09:00 +1°C° 0 mm 4 m/s 755 mmHg 84%
    10:00 +4°C° 0 mm 4 m/s 756 mmHg 78%
    11:00 +5°C° 0.1 mm 4 m/s 756 mmHg 71%
    12:00 +6°C° 0.1 mm 4 m/s 757 mmHg 63%
    13:00 +7°C° 0.1 mm 4 m/s 757 mmHg 55%
    14:00 +6°C° 0.1 mm 4 m/s 757 mmHg 56%
    15:00 +6°C° 0.1 mm 4 m/s 758 mmHg 56%
    16:00 +6°C° 0.1 mm 4 m/s 758 mmHg 57%
    17:00 +4°C° 0 mm 3 m/s 758 mmHg 62%
    18:00 +3°C° 0 mm 3 m/s 759 mmHg 67%
    19:00 +3°C° 0 mm 2 m/s 759 mmHg 72%
    20:00 +2°C° 0 mm 2 m/s 760 mmHg 73%
    21:00 +1°C° 0 mm 2 m/s 760 mmHg 74%
    22:00 +1°C° 0 mm 2 m/s 761 mmHg 75%
    23:00 +1°C° 0 mm 2 m/s 761 mmHg 76%

    Mâine, 20 Martie, Miercuri

    Timp Temperatura Precipitaţii Vânt Presiune Umiditate
    00:00 -1°C° 0 mm 2 m/s 761 mmHg 78%
    01:00 -1°C° 0 mm 2 m/s 762 mmHg 80%
    02:00 -1°C° 0 mm 2 m/s 762 mmHg 80%
    03:00 -1°C° 0 mm 2 m/s 762 mmHg 79%
    04:00 -1°C° 0 mm 2 m/s 762 mmHg 79%
    05:00 -1°C° 0 mm 2 m/s 762 mmHg 75%
    06:00 -1°C° 0 mm 2 m/s 763 mmHg 71%
    07:00 0°C° 0 mm 3 m/s 763 mmHg 67%
    08:00 +2°C° 0 mm 3 m/s 763 mmHg 63%
    09:00 +4°C° 0 mm 4 m/s 764 mmHg 59%
    10:00 +5°C° 0 mm 5 m/s 764 mmHg 55%
    11:00 +6°C° 0 mm 5 m/s 764 mmHg 53%
    12:00 +8°C° 0 mm 5 m/s 764 mmHg 51%
    13:00 +9°C° 0 mm 6 m/s 764 mmHg 49%
    14:00 +9°C° 0 mm 5 m/s 763 mmHg 52%
    15:00 +9°C° 0 mm 5 m/s 763 mmHg 56%
    16:00 +9°C° 0 mm 5 m/s 763 mmHg 60%
    17:00 +8°C° 0 mm 5 m/s 763 mmHg 66%
    18:00 +7°C° 0 mm 4 m/s 763 mmHg 73%
    19:00 +7°C° 0 mm 4 m/s 763 mmHg 79%
    20:00 +6°C° 0.1 mm 4 m/s 763 mmHg 83%
    21:00 +6°C° 0.1 mm 4 m/s 764 mmHg 88%
    22:00 +7°C° 0.1 mm 3 m/s 764 mmHg 92%
    23:00 +7°C° 0 mm 3 m/s 764 mmHg 93%

    Poimâine, 21 Martie, Joi

    Timp Temperatura Precipitaţii Vânt Presiune Umiditate
    00:00 +7°C° 0 mm 3 m/s 764 mmHg 95%
    01:00 +5°C° 0 mm 3 m/s 764 mmHg 96%
    02:00 +5°C° 0 mm 3 m/s 764 mmHg 97%
    03:00 +6°C° 0 mm 2 m/s 764 mmHg 97%
    04:00 +5°C° 0 mm 2 m/s 764 mmHg 97%
    05:00 +5°C° 0 mm 3 m/s 764 mmHg 97%
    06:00 +5°C° 0 mm 3 m/s 764 mmHg 96%
    07:00 +5°C° 0 mm 3 m/s 764 mmHg 96%
    08:00 +5°C° 0 mm 3 m/s 765 mmHg 94%
    09:00 +6°C° 0 mm 4 m/s 765 mmHg 92%
    10:00 +6°C° 0 mm 4 m/s 765 mmHg 90%
    11:00 +7°C° 0 mm 4 m/s 765 mmHg 87%
    12:00 +8°C° 0 mm 4 m/s 765 mmHg 85%
    13:00 +10°C° 0 mm 4 m/s 765 mmHg 82%
    14:00 +10°C° 0 mm 4 m/s 764 mmHg 83%
    15:00 +10°C° 0 mm 4 m/s 764 mmHg 84%
    16:00 +10°C° 0 mm 3 m/s 764 mmHg 84%
    17:00 +10°C° 0 mm 3 m/s 764 mmHg 86%
    18:00 +10°C° 0 mm 3 m/s 764 mmHg 88%
    19:00 +10°C° 0 mm 3 m/s 764 mmHg 90%
    20:00 +10°C° 0 mm 3 m/s 763 mmHg 91%
    21:00 +9°C° 0 mm 3 m/s 763 mmHg 92%
    22:00 +9°C° 0 mm 3 m/s 763 mmHg 92%
    23:00 +9°C° 0 mm 3 m/s 763 mmHg 94%

    22 Martie, Vineri

    Timp Temperatura Precipitaţii Vânt Presiune Umiditate
    00:00 +8°C° 0 mm 3 m/s 763 mmHg 95%
    01:00 +8°C° 0 mm 2 m/s 763 mmHg 96%
    02:00 +7°C° 0 mm 3 m/s 763 mmHg 96%
    03:00 +7°C° 0 mm 3 m/s 763 mmHg 96%
    04:00 +7°C° 0 mm 3 m/s 763 mmHg 96%
    05:00 +7°C° 0 mm 3 m/s 763 mmHg 97%
    06:00 +7°C° 0 mm 3 m/s 763 mmHg 97%
    07:00 +7°C° 0 mm 3 m/s 763 mmHg 97%
    08:00 +9°C° 0 mm 3 m/s 763 mmHg 91%
    09:00 +11°C° 0 mm 3 m/s 763 mmHg 85%
    10:00 +13°C° 0 mm 4 m/s 763 mmHg 78%
    11:00 +13°C° 0 mm 4 m/s 763 mmHg 75%
    12:00 +14°C° 0 mm 4 m/s 762 mmHg 71%
    13:00 +15°C° 0 mm 4 m/s 762 mmHg 68%
    14:00 +15°C° 0 mm 4 m/s 762 mmHg 67%
    15:00 +15°C° 0 mm 4 m/s 761 mmHg 67%
    16:00 +15°C° 0 mm 4 m/s 761 mmHg 67%
    17:00 +14°C° 0 mm 3 m/s 761 mmHg 71%
    18:00 +13°C° 0 mm 3 m/s 761 mmHg 75%
    19:00 +13°C° 0 mm 2 m/s 760 mmHg 80%
    20:00 +11°C° 0 mm 3 m/s 760 mmHg 81%
    21:00 +11°C° 0 mm 3 m/s 760 mmHg 83%
    22:00 +11°C° 0 mm 3 m/s 760 mmHg 84%
    23:00 +10°C° 0 mm 3 m/s 760 mmHg 86%

    23 Martie, Sâmbătă

    Timp Temperatura Precipitaţii Vânt Presiune Umiditate
    00:00 +10°C° 0 mm 3 m/s 760 mmHg 88%
    01:00 +9°C° 0 mm 3 m/s 760 mmHg 90%
    02:00 +9°C° 0 mm 3 m/s 759 mmHg 90%
    03:00 +9°C° 0 mm 3 m/s 759 mmHg 91%
    04:00 +8°C° 0 mm 3 m/s 759 mmHg 91%
    05:00 +8°C° 0 mm 3 m/s 759 mmHg 92%
    06:00 +8°C° 0 mm 3 m/s 759 mmHg 92%
    07:00 +8°C° 0 mm 2 m/s 759 mmHg 92%
    08:00 +10°C° 0 mm 3 m/s 759 mmHg 85%
    09:00 +11°C° 0 mm 3 m/s 759 mmHg 79%
    10:00 +13°C° 0 mm 3 m/s 759 mmHg 72%
    11:00 +13°C° 0 mm 4 m/s 759 mmHg 70%
    12:00 +14°C° 0 mm 4 m/s 759 mmHg 69%
    13:00 +14°C° 0 mm 4 m/s 759 mmHg 67%
    14:00 +13°C° 0 mm 4 m/s 759 mmHg 70%
    15:00 +13°C° 0 mm 4 m/s 759 mmHg 72%
    16:00 +12°C° 0 mm 4 m/s 759 mmHg 74%
    17:00 +11°C° 0 mm 3 m/s 759 mmHg 78%
    18:00 +9°C° 0 mm 3 m/s 759 mmHg 82%
    19:00 +8°C° 0 mm 2 m/s 759 mmHg 87%
    20:00 +7°C° 0 mm 2 m/s 759 mmHg 83%
    21:00 +6°C° 0 mm 2 m/s 759 mmHg 80%
    22:00 +6°C° 0 mm 2 m/s 759 mmHg 77%
    23:00 +5°C° 0 mm 2 m/s 759 mmHg 75%

    24 Martie, Duminică

    Timp Temperatura Precipitaţii Vânt Presiune Umiditate
    00:00 +6°C° 0 mm 1 m/s 759 mmHg 72%
    01:00 +5°C° 0 mm 1 m/s 759 mmHg 70%
    02:00 +5°C° 0 mm 1 m/s 759 mmHg 69%
    03:00 +5°C° 0 mm 1 m/s 758 mmHg 69%
    04:00 +4°C° 0 mm 0 m/s 758 mmHg 68%
    05:00 +4°C° 0 mm 0 m/s 758 mmHg 66%
    06:00 +5°C° 0 mm 0 m/s 758 mmHg 64%
    07:00 +5°C° 0 mm 0 m/s 758 mmHg 62%
    08:00 +5°C° 0 mm 0 m/s 757 mmHg 61%
    09:00 +6°C° 0 mm 0 m/s 757 mmHg 59%
    10:00 +6°C° 0 mm 0 m/s 757 mmHg 58%
    11:00 +7°C° 0 mm 1 m/s 757 mmHg 59%
    12:00 +7°C° 0 mm 2 m/s 756 mmHg 60%
    13:00 +7°C° 0 mm 2 m/s 756 mmHg 61%
    14:00 +7°C° 0 mm 3 m/s 756 mmHg 62%
    15:00 +7°C° 0 mm 4 m/s 755 mmHg 62%
    16:00 +7°C° 0 mm 5 m/s 755 mmHg 63%
    17:00 +6°C° 0 mm 4 m/s 755 mmHg 64%
    18:00 +5°C° 0 mm 4 m/s 755 mmHg 65%
    19:00 +4°C° 0 mm 4 m/s 754 mmHg 66%
    20:00 +3°C° 0 mm 5 m/s 754 mmHg 68%
    21:00 +3°C° 0 mm 6 m/s 754 mmHg 71%
    22:00 +2°C° 0 mm 7 m/s 754 mmHg 73%
    23:00 +2°C° 0.1 mm 8 m/s 754 mmHg 71%
    Arată mai mult